Tracking 27111 objects as of 28-Mar-2023
HD Live streaming from Space Station
objects crossing your sky now

STARLINK-5826

Track STARLINK-5826 now!
10-day predictions
STARLINK-5826 is classified as:


NORAD ID: 55782
Int'l Code: 2023-028AT
Perigee: 363.8 km
Apogee: 368.6 km
Inclination: 70.0 °
Period: 91.7 minutes
Semi major axis: 6737 km
RCS: Unknown
Launch date: March 3, 2023
Source: United States (US)
Launch site: AIR FORCE WESTERN TEST RANGE (AFWTR)
Your satellite tracking list
Your tracking list is empty




NASA's NSSDC Master Catalog

Two Line Element Set (TLE):
1 55782U 23028AT  23087.15436800  .00004726  00000-0  41038-4 0  9998
2 55782  70.0022  86.5977 0003540 267.4936  92.5854 15.69931181  4507
Source of the keplerian elements: AFSPC